This demonstration page uses our WeatherBlox Daily Observations layout. Learn more.

Left ArrowRight Arrow

Hourly Observations for November 7, 2019

Temp ( °F °C ) Dew Point ( °F °C ) Humidity (%) Winds ( mph kmh ) Pressure ( in mb ) Visibility ( mi km ) Precip ( " mm )
12:53 am 00:53 Cloudy 25 -3.9 18 -7.8 75 75 N 18 30 30.63 1037 10 16 0.00 0.00
1:31 am 01:31 Cloudy 24 -4.4 16 -8.9 71 71 N 16 26 30.70 1040 10 16 0.00 0.00
1:53 am 01:53 Cloudy 23 -5 15 -9.4 72 72 N 16 26 30.65 1038 10 16 0.00 0.00
2:19 am 02:19 Partly Cloudy 22 -5.6 14 -10 71 71 NNE 15 24 30.71 1040 10 16 0.00 0.00
2:53 am 02:53 Clear 20 -6.7 12 -11.1 71 71 N 15 24 30.67 1039 10 16 0.00 0.00
3:53 am 03:53 Clear 17 -8.3 11 -11.7 77 77 NNE 9 15 30.68 1039 10 16 0.00 0.00
4:53 am 04:53 Clear 14 -10 9 -12.8 80 80 NNE 5 7 30.69 1039 10 16 0.00 0.00
5:53 am 05:53 Clear 13 -10.6 8 -13.3 81 81 NNW 5 7 30.69 1039 10 16 0.00 0.00
6:53 am 06:53 Clear 13 -10.6 8 -13.3 81 81 NW 3 6 30.69 1039 10 16 0.00 0.00
7:53 am 07:53 Sunny 13 -10.6 9 -12.8 84 84 NW 5 7 30.68 1039 10 16 0.00 0.00
8:53 am 08:53 Sunny 19 -7.2 9 -12.8 65 65 Calm 30.69 1039 10 16 0.00 0.00
9:53 am 09:53 Sunny 21 -6.1 8 -13.3 57 57 Calm 30.68 1039 10 16 0.00 0.00
10:53 am 10:53 Sunny 25 -3.9 6 -14.4 44 44 W 7 11 30.67 1039 10 16 0.00 0.00
11:53 am 11:53 Sunny 28 -2.2 5 -15 37 37 undefined N/A 30.63 1037 10 16 0.00 0.00
12:53 pm 12:53 Sunny 32 0 8 -13.3 36 36 undefined N/A 30.59 1036 10 16 0.00 0.00
1:53 pm 13:53 Sunny 36 2.2 10 -12.2 34 34 SW 9 15 30.55 1035 10 16 0.00 0.00
2:53 pm 14:53 Sunny 37 2.8 11 -11.7 34 34 SW 9 15 30.53 1034 10 16 0.00 0.00
3:53 pm 15:53 Sunny 38 3.3 12 -11.1 34 34 SW 10 17 30.51 1033 10 16 0.00 0.00
4:53 pm 16:53 Sunny 37 2.8 13 -10.6 37 37 SW 7 11 30.52 1034 10 16 0.00 0.00
5:53 pm 17:53 Clear 34 1.1 14 -10 44 44 SSW 5 7 30.52 1034 10 16 0.00 0.00
6:53 pm 18:53 Clear 30 -1.1 14 -10 51 51 SSW 3 6 30.53 1034 10 16 0.00 0.00
7:53 pm 19:53 Clear 29 -1.7 14 -10 54 54 SSW 6 9 30.53 1034 10 16 0.00 0.00
8:53 pm 20:53 Clear 28 -2.2 13 -10.6 53 53 S 6 9 30.51 1033 10 16 0.00 0.00
9:53 pm 21:53 Clear 26 -3.3 13 -10.6 57 57 S 6 9 30.51 1033 10 16 0.00 0.00
10:53 pm 22:53 Clear 24 -4.4 13 -10.6 62 62 SSW 7 11 30.50 1033 10 16 0.00 0.00
11:53 pm 23:53 Clear 25 -3.9 14 -10 63 63 SSW 7 11 30.48 1032 10 16 0.00 0.00

Powered by AerisWeather